Vertical_Velocity
2 3 1 4 6 3 2 3 4 3 1 3 3 -2 -0 0 2 -2 -0 3 2 2 0 -6 -0 1 2 -1 -0 6 1 14
-3 0 -1 0 2 2 -2 1 10 -5 3 4 -6 1 -0 -1 -1 7 -3 -0 2 1 2 -9 -2 7 3 2 -1 -0 12 64
6 2 4 4 4 5 2 5 3 -1 -1 15 2 -1 3 2 -3 -3 5 -0 3 -3 0 -7 2 4 2 3 -1 1 7 3
-1 1 1 -1 0 1 1 -0 -1 -1 3 4 5 3 8 6 2 6 -4 8 -3 -1 -3 -6 -0 1 3 -1 3 0 5 6
2 3 1 1 2 0 2 7 2 0 -2 -1 109 4 12 -3 2 4 1 1 4 8 -1 -2 -3 2 4 2 3 5 2 -4
1 2 3 4 4 2 3 3 5 -1 2 8 7 1 8 42 2 -4 10 7 -1 6 -3 -1 -2 -4 6 1 2 6 9 -3
2 1 -1 -0 3 5 2 4 4 1 -0 6 -4 -2 -3 3 5 6 3 1 4 -2 -4 1 1 -7 3 3 0 3 14 12
-3 1 0 3 2 2 6 -3 -2 4 2 0 3 -2 3 -4 6 34 -1 3 5 2 7 3 5 2 -1 5 2 1 10 7
-3 -4 -4 -1 -1 -1 2 1 7 -1 0 0 2 3 -5 3 1 1 14 6 -1 3 6 6 -5 10 2 7 -1 -1 3 7
-4 -3 -7 -5 -2 -2 -5 -1 0 5 6 5 1 1 3 -3 1 -2 -4 27 -24 67 0 23 4 6 13 2 1 -8 3 4
-8 -3 0 -4 -3 -1 -1 -4 -3 0 2 1 5 -1 1 4 -2 -1 3 -1 2 -11 18 3 2 11 7 1 -2 -3 4 -1
-7 -7 -3 -1 -5 -2 -1 -4 -3 -1 0 -2 3 5 -1 3 4 -4 1 3 4 15 -2 -6 -0 26 13 7 -4 3 9 7
-8 -10 -10 -4 -1 0 -0 2 -4 -1 0 2 -1 1 3 -1 2 3 -4 1 1 1 -3 -4 2 -1 22 7 6 7 -1 14
-8 -8 -6 -7 -2 -2 -3 -1 -4 -3 -2 5 2 -0 1 4 -2 -1 0 -1 -2 0 11 -21 11 10 -1 14 12 1 -1 36
-5 -8 -7 -7 -4 -2 -0 -1 -2 -2 -6 -3 2 -0 2 2 1 -0 -6 -2 -2 -1 -6 -3 7 -5 6 12 6 -6 8 -1
-4 -4 -4 -6 -4 -2 -4 -1 4 -1 4 -0 -2 -0 -1 -0 1 1 1 -9 0 -2 -2 -0 7 3 3 2 -2 4 15 2
-3 -5 -5 -4 -6 -3 -1 4 -4 0 -1 -1 -4 -2 0 -3 -0 -2 2 1 -5 -3 -5 -4 -0 3 20 4 -1 -4 -2 6
-3 -6 -6 -4 -3 -4 0 0 -0 2 0 -0 0 -1 -1 -3 -4 -2 -2 3 0 -5 -4 -5 -1 -0 -6 1 -1 8 3 18
-3 -3 -5 -5 -3 -3 -1 -1 1 1 1 -1 -3 -0 3 -1 -4 -3 -1 -3 3 -1 -4 -5 -3 0 5 -1 -2 6 5 -2
-3 -4 -5 -4 -4 -3 -2 -2 1 -0 1 1 1 -1 -2 2 -2 -4 -5 -3 -0 2 -1 -4 -6 -0 0 -1 -3 2 2 3
Height
5832 5830 5828 5827 5827 5827 5826 5827 5827 5827 5826 5827 5827 5828 5828 5827 5830 5831 5832 5832 5834 5835 5834 5835 5837 5837 5836 5836 5836 5835 5837 5836
5822 5820 5818 5816 5815 5814 5814 5816 5817 5818 5816 5817 5816 5818 5820 5820 5820 5820 5824 5825 5826 5828 5830 5830 5833 5834 5833 5834 5834 5833 5833 5828
5811 5808 5806 5803 5802 5801 5801 5803 5802 5803 5804 5804 5805 5805 5809 5811 5811 5812 5813 5815 5817 5819 5824 5824 5828 5829 5831 5831 5831 5831 5833 5831
5797 5795 5792 5791 5789 5788 5788 5787 5787 5789 5791 5790 5792 5794 5796 5799 5801 5801 5804 5806 5806 5810 5816 5817 5821 5824 5826 5827 5828 5826 5833 5828
5783 5780 5777 5774 5771 5771 5770 5772 5771 5772 5774 5776 5774 5782 5783 5786 5790 5791 5794 5796 5799 5799 5805 5809 5814 5817 5820 5821 5822 5820 5824 5826
5768 5764 5761 5757 5755 5754 5753 5753 5754 5756 5757 5764 5767 5768 5767 5775 5778 5782 5784 5786 5789 5790 5795 5800 5804 5808 5813 5816 5815 5817 5815 5821
5755 5750 5745 5740 5739 5736 5735 5735 5737 5739 5740 5742 5747 5752 5755 5760 5766 5768 5771 5776 5778 5781 5785 5790 5794 5800 5805 5809 5809 5812 5813 5814
5741 5733 5727 5722 5719 5717 5717 5717 5718 5720 5723 5726 5729 5735 5740 5744 5744 5754 5758 5764 5767 5769 5773 5778 5783 5786 5794 5800 5802 5806 5808 5813
5727 5719 5713 5707 5701 5698 5697 5695 5697 5700 5702 5706 5710 5715 5721 5726 5733 5740 5746 5752 5756 5756 5754 5762 5769 5774 5781 5788 5792 5797 5802 5806
5717 5709 5701 5695 5689 5684 5681 5680 5678 5680 5681 5685 5688 5694 5700 5706 5714 5723 5731 5737 5740 5727 5746 5751 5758 5765 5771 5777 5782 5786 5795 5798
5708 5699 5691 5687 5680 5676 5671 5668 5666 5664 5666 5666 5671 5676 5681 5687 5695 5704 5712 5718 5725 5727 5726 5741 5749 5756 5762 5767 5770 5775 5781 5789
5704 5692 5683 5676 5671 5667 5663 5658 5655 5654 5653 5653 5655 5657 5663 5668 5675 5685 5694 5701 5708 5719 5722 5730 5735 5744 5751 5758 5761 5767 5773 5777
5699 5688 5677 5668 5660 5656 5654 5651 5645 5644 5643 5642 5643 5644 5647 5650 5656 5665 5675 5683 5691 5701 5710 5717 5723 5730 5740 5747 5752 5757 5763 5767
5693 5682 5670 5659 5651 5645 5641 5640 5634 5633 5632 5632 5632 5632 5635 5638 5640 5647 5656 5665 5674 5686 5697 5702 5709 5718 5724 5734 5740 5747 5754 5755
5686 5675 5664 5652 5643 5636 5630 5626 5622 5622 5620 5620 5620 5622 5624 5627 5630 5632 5638 5648 5656 5666 5678 5686 5695 5704 5711 5720 5729 5738 5746 5751
5680 5669 5658 5647 5635 5627 5621 5616 5612 5610 5610 5609 5609 5611 5612 5616 5619 5623 5625 5631 5640 5648 5661 5667 5680 5690 5699 5707 5716 5728 5731 5741
5676 5665 5654 5641 5629 5618 5612 5608 5601 5599 5599 5599 5599 5599 5601 5604 5608 5612 5616 5618 5623 5632 5642 5652 5662 5675 5682 5692 5703 5712 5723 5730
5673 5662 5650 5637 5624 5612 5603 5596 5592 5590 5588 5588 5589 5589 5590 5593 5596 5601 5606 5609 5611 5616 5625 5636 5646 5658 5666 5677 5688 5698 5709 5718
5671 5659 5645 5632 5618 5605 5594 5585 5582 5579 5578 5578 5577 5578 5579 5582 5585 5589 5594 5598 5602 5604 5610 5620 5632 5642 5653 5663 5673 5683 5696 5705
5666 5653 5640 5626 5612 5598 5584 5576 5571 5569 5568 5568 5567 5567 5570 5572 5575 5578 5583 5587 5591 5594 5597 5605 5617 5628 5639 5649 5660 5670 5680 5693